This is the latest recevied weather packets stored in our database for station/object PD2BVG. If no packets are shown the sender has not sent any weather packets the latest 1 day(s).
| Time | Temp. | Humidity | Pressure | Rain* | Wind** | Luminosity | Snow |
|---|---|---|---|---|---|---|---|
| 1778000912 | 13.33° C | 75% | 1010.3 hPa | 0 mm | 5.36 m/s, 317° | 269 W/m² | - |
| 1778000851 | 13.33° C | 74% | 1010.4 hPa | 0 mm | 4.92 m/s, 341° | 276 W/m² | - |
| 1778000790 | 13.33° C | 74% | 1010.3 hPa | 0 mm | 5.36 m/s, 324° | 280 W/m² | - |
| 1778000730 | 13.33° C | 74% | 1010.4 hPa | 0 mm | 5.81 m/s, 337° | 280 W/m² | - |
| 1778000669 | 13.33° C | 75% | 1010.4 hPa | 0 mm | 4.92 m/s, 347° | 278 W/m² | - |
| 1778000609 | 13.33° C | 75% | 1010.4 hPa | 0 mm | 4.92 m/s, 345° | 288 W/m² | - |
| 1778000549 | 13.33° C | 75% | 1010.3 hPa | 0 mm | 5.36 m/s, 320° | 310 W/m² | - |
| 1778000489 | 13.33° C | 75% | 1010.4 hPa | 0 mm | 4.47 m/s, 351° | 315 W/m² | - |
| 1778000429 | 13.33° C | 75% | 1010.4 hPa | 0 mm | 4.47 m/s, 343° | 313 W/m² | - |
| 1778000371 | 13.33° C | 75% | 1010.4 hPa | 0 mm | 4.92 m/s, 0° | 311 W/m² | - |
| 1778000310 | 13.33° C | 75% | 1010.3 hPa | 0 mm | 4.92 m/s, 334° | 313 W/m² | - |
| 1778000250 | 13.33° C | 75% | 1010.3 hPa | 0 mm | 4.92 m/s, 3° | 320 W/m² | - |
| 1778000190 | 13.33° C | 75% | 1010.4 hPa | 0 mm | 4.47 m/s, 331° | 313 W/m² | - |
| 1778000129 | 13.33° C | 75% | 1010.4 hPa | 0 mm | 4.47 m/s, 323° | 290 W/m² | - |
| 1778000069 | 13.33° C | 75% | 1010.4 hPa | 0 mm | 5.36 m/s, 330° | 287 W/m² | - |
| 1778000010 | 13.33° C | 74% | 1010.4 hPa | 0 mm | 6.26 m/s, 343° | 276 W/m² | - |
| 1777999949 | 13.33° C | 74% | 1010.4 hPa | 0 mm | 5.81 m/s, 334° | 297 W/m² | - |
| 1777999889 | 13.33° C | 74% | 1010.4 hPa | 0 mm | 6.26 m/s, 354° | 297 W/m² | - |
| 1777999829 | 13.33° C | 74% | 1010.4 hPa | 0 mm | 6.71 m/s, 323° | 310 W/m² | - |
| 1777999769 | 13.33° C | 74% | 1010.5 hPa | 0 mm | 5.81 m/s, 345° | 292 W/m² | - |
| 1777999707 | 13.33° C | 74% | 1010.4 hPa | 0 mm | 4.92 m/s, 337° | 246 W/m² | - |
| 1777999646 | 13.33° C | 74% | 1010.5 hPa | 0 mm | 4.47 m/s, 0° | 243 W/m² | - |
| 1777999584 | 13.33° C | 74% | 1010.4 hPa | 0 mm | 4.92 m/s, 348° | 257 W/m² | - |
| 1777999524 | 13.33° C | 73% | 1010.4 hPa | 0 mm | 5.36 m/s, 343° | 285 W/m² | - |
| 1777999463 | 13.33° C | 73% | 1010.5 hPa | 0 mm | 4.92 m/s, 313° | 259 W/m² | - |
* Rain latest hour (hover to see other rain measurements)
** Current wind speed in m/s (hover to see current wind gust speed)